Terminal Aerodrome Forecast
Issued by NWS Knoxville/Tri Cities, TN

Home | Current Version | Previous Version | Text Only | Print | Product List | Glossary On
Versions: 1 2 3 4 5 6 7 8 9 10 11 12 13 14 15 16 17 18 19 20 21 22 23 24 25 26 27 28 29 30 31 32 33 34 35 36 37
000
FTUS44 KMRX 020535
TAFTYS
TAF
KTYS 020535Z 0206/0306 23005KT P6SM SCT250
      TEMPO 0208/0212 4SM BR
     FM022000 24008KT P6SM VCTS BKN050CB OVC150
     FM030200 24005KT P6SM BKN080=

USA.gov is the U.S. government's official web portal to all federal, state and local government web resources and services.